Regional Weather Roundup
Issued by NWS

Home | Current Version | Previous Version | Graphics & Text | Print | Product List | Glossary On
Versions: 1 2 3 4 5 6 7 8 9 10 11 12 13 14 15 16 17 18 19 20 21 22 23 24 25 26 27 28 29 30 31 32 33 34 35 36 37 38 39 40 41 42 43 44 45 46 47 48 49 50
000
ASUS43 KDMX 301507
RWRIA

WEATHER ROUNDUP FOR IOWA
NATIONAL WEATHER SERVICE DES MOINES IA
1000 AM CDT SUN AUG 30 2015

NOTE: "FAIR" INDICATES FEW OR NO CLOUDS BELOW 12,000 FEET WITH NO
SIGNIFICANT WEATHER AND/OR OBSTRUCTIONS TO VISIBILITY.

* - THESE STATIONS ARE NOT NWS STATIONS...THUS NOT UNDER NWS
QUALITY CONTROL.  THEY ALSO DO NOT REPORT WEATHER SUCH
AS PRECIPITATION OR FOG.

IAZ001>003-012>014-020>022-031>034-043>046-301600-
   NORTHWEST IOWA

CITY           SKY/WX    TMP DP  RH WIND       PRES   REMARKS
CARROLL *      CLOUDY    64  64 100 S8G15     30.06R FOG
CHEROKEE *     CLOUDY    64  64 100 S8        30.04R FOG
DENISON *      CLOUDY    64  63  94 S12       30.04R
LE MARS *      CLOUDY    63  63 100 S10       30.03S FOG
ORANGE CITY *  CLOUDY    63  63 100 S8        30.02F FOG
SHELDON *      CLOUDY    64  61  88 S8        30.01F
SPENCER        CLOUDY    66  60  81 SW7       30.04R
STORM LAKE *   CLOUDY    64  63  94 SW9       30.05S
$$

IAZ055>058-069>071-079>083-090>094-301600-
   SOUTHWEST IOWA

CITY           SKY/WX    TMP DP  RH WIND       PRES   REMARKS
ATLANTIC *     FOG       63  63 100 S5        30.07S VSB 0
AUDUBON *      CLOUDY    64  63  94 S6        30.08R
CLARINDA *     CLOUDY    64  64 100 CALM      30.09R
COUNCIL BLFS * CLOUDY    64  64 100 SW7       30.06F FOG
CRESTON *      CLOUDY    66  66 100 SE3       30.09R FOG
HARLAN  *      PTSUNNY   64 N/A N/A S7        30.10R
LAMONI         FOG       67  66  97 SE3       30.08R VSB 1/4
RED OAK *      CLOUDY    63  63 100 CALM      30.07S
SHENANDOAH *   CLOUDY    63  63 100 CALM      30.08R
$$

IAZ047>049-059>061-072>074-084-301600-
   CENTRAL IOWA

CITY           SKY/WX    TMP DP  RH WIND       PRES   REMARKS
AMES           CLOUDY    66  64  93 SE3       30.07R
ANKENY *       CLOUDY    64  64 100 S6        30.07R FOG
CHARITON *     FOG       66  66 100 SE6       30.08R VSB 0
DES MOINES     FOG       65  63  93 S3        30.07R VSB 3/4
GRINNELL*      CLOUDY    66  66 100 S5        30.09R FOG
KNOXVILLE *    FOG       64  63  94 SE5       30.07R VSB 3/4
MARSHALLTOWN   CLOUDY    66  64  93 CALM      30.07R FOG
PELLA *        FOG       65  65 100 CALM      30.09R VSB<1/4
PERRY *        FOG       64  64 100 S5        30.07R VSB 3/4
$$

IAZ004>006-015-016-023>025-035-036-301600-
   NORTH CENTRAL IOWA

CITY           SKY/WX    TMP DP  RH WIND       PRES   REMARKS
ALGONA *       PTSUNNY   66  63  88 SW10G17   30.05S
CLARION *      CLOUDY    66  64  94 SW7       30.07R
ESTHERVILLE    CLOUDY    63  60  90 SW7       30.04R
FORT DODGE *   CLOUDY    66  61  82 S6        30.07R
MASON CITY     CLOUDY    65  63  93 S7        30.08R
FOREST CITY *  CLOUDY    63  63 100 SW8       30.06R
IOWA FALLS *   CLOUDY    64  64 100 S3        30.09R
$$

IAZ007>011-017>019-026>030-037>042-050>054-066-301600-
   NORTHEAST IOWA

CITY           SKY/WX    TMP DP  RH WIND       PRES   REMARKS
CEDAR RAPIDS   CLOUDY    66  66 100 SE6       30.08R FOG
CHARLES CITY * CLOUDY    63  63 100 S6        30.08S FOG
CLINTON *      PTSUNNY   64  63  94 E3        30.11S
DECORAH *      PTSUNNY   64  64 100 VRB3      30.07S
DUBUQUE        CLOUDY    67  61  81 SE5       30.10R
MONTICELLO *   CLOUDY    66  64  94 E5        30.08S
OELWEIN *        N/A     66  66 100 CALM      30.09R
WATERLOO       CLOUDY    67  64  90 S6        30.06S
$$

IAZ064-065-067-068-078-301600-
   EAST CENTRAL IOWA

CITY           SKY/WX    TMP DP  RH WIND       PRES   REMARKS
DAVENPORT      CLOUDY    65  64  97 E6        30.10R FOG
IOWA CITY      CLOUDY    67  64  90 SE5       30.09R
MT. PLEASANT * FOG       70  66  88 CALM      30.09R VSB 3/4
MUSCATINE *    MOSUNNY   66  64  94 CALM      30.09R
QUAD CITIES    CLOUDY    65  63  93 VRB5      30.09R FOG
$$

IAZ062-063-075>077-085>089-095>099-301600-
   SOUTHEAST IOWA

CITY           SKY/WX    TMP DP  RH WIND       PRES   REMARKS
BURLINGTON     FOG       67  67 100 NE3       30.08R VSB 1
FAIRFIELD *    FOG       66  64  94 CALM      30.09R VSB 1/4
FORT MADISON * FOG       66  66 100 CALM      30.09R VSB 0
KEOKUK *       CLOUDY    70  70 100 NE5       30.07R FOG
OSKALOOSA *    FOG       64  64 100 E5        30.09R VSB 1
CENTERVILLE *  CLOUDY    66  66 100 SE5       30.10R FOG
OTTUMWA        FOG       66  66 100 E3        30.07R VSB 1/2
WASHINGTON *     N/A    N/A N/A N/A MISG        N/A
$$

ABBREVIATIONS USED IN REMARKS
   TC - TEMPERATURES IN CELSIUS
  WCI - WIND CHILL INDEX
   HX - HEAT INDEX
  VSB - VISIBILITY
$$




USA.gov is the U.S. government's official web portal to all federal, state and local government web resources and services.